Regional Weather Roundup
Issued by NWS Columbia, SC

Home | Current Version | Previous Version | Text Only | Print | Product List | Glossary On
Versions: 1 2 3 4 5 6 7 8 9 10 11 12 13 14 15 16 17 18 19 20 21 22 23 24 25 26 27 28 29 30 31 32 33 34 35 36 37 38 39 40 41 42 43 44 45 46 47 48 49 50
000
ASUS42 KCAE 220210
RWRCAE
REGIONAL WEATHER ROUNDUP
NATIONAL WEATHER SERVICE COLUMBIA SC
1000 PM EDT THU AUG 21 2014

NOTE: "FAIR" INDICATES FEW OR NO CLOUDS BELOW 12,000 FEET WITH NO
SIGNIFICANT WEATHER AND/OR OBSTRUCTIONS TO VISIBILITY.

NOT ALL STATIONS ARE QUALITY CONTROLLED BY THE NATIONAL
WEATHER SERVICE. USE DATA WITH CAUTION...ESPECIALLY
DEWPOINT OBSERVATIONS.

SCZ001>056-GAZ040-063>065-077-220300-
...UPSTATE SOUTH CAROLINA...

CITY           SKY/WX    TMP DP  RH WIND       PRES   REMARKS
ANDERSON       CLEAR     78  70  76 CALM      30.10R
LIBERTY        FAIR      73  32  22 CALM      30.11R
SPARTANBURG    FAIR      81  75  83 CALM      30.09S
CLEMSON        CLEAR     79  70  74 CALM      30.11S
GREENVILLE     CLEAR     83  71  67 CALM      30.12R
GREENWOOD      CLEAR     79  69  71 CALM      30.10R
GREER          PTCLDY    79  71  76 CALM      30.10R
ROCK HILL      PTCLDY    75  71  87 CALM      30.09S
CHESTER        FAIR      81  68  65 CALM      30.09S
LAURENS        FAIR      77  70  78 CALM      30.10R


...CENTRAL SOUTH CAROLINA...

CITY           SKY/WX    TMP DP  RH WIND       PRES   REMARKS
COLUMBIA APT   PTCLDY    86  70  58 CALM      30.06R
COLUMBIA OWENS PTCLDY    84  70  62 CALM      30.07R
DARLINGTON     PTCLDY    75  70  83 CALM      30.07R
FLORENCE       CLEAR     80  71  74 CALM      30.06R
MCENTIRE ANGB  PTCLDY    77  73  85 CALM      30.07R
ORANGEBURG     PTCLDY    81  72  74 CALM      30.07R
SUMTER SHAW    CLEAR     80  74  82 NE2       30.05R
NEWBERRY       FAIR      79  68  69 SE3       30.11S
AIKEN          FAIR      82  70  65 SE5       30.12R
BARNWELL       FAIR      81  70  69 CALM      30.08R
MANNING        FAIR      79 N/A N/A CALM      30.06R
CAMDEN         FAIR      82  72  69 CALM      30.08R
LANCASTER      FAIR      79  75  89 CALM      30.08S
WINNSBORO      FAIR      81  73  78 E3        30.08S


...EASTERN AND COASTAL SOUTH CAROLINA...

CITY           SKY/WX    TMP DP  RH WIND       PRES   REMARKS
MYRTLE BEACH   CLEAR     81  73  78 CALM      30.05R
N MYRTLE BCH   CLEAR     77  75  93 CALM      30.05R
CONWAY         FAIR      77  77 100 CALM      30.05R FOG
MARION         FAIR      79  75  89 CALM      30.05S
HARTSVILLE     FAIR      79  55  44 CALM      30.08R
FLORENCE       CLEAR     80  71  74 CALM      30.06R
DARLINGTON     PTCLDY    75  70  83 CALM      30.07R
CHARLESTON APT PTCLDY    86  72  62 CALM      30.06R
MOUNT PLEASANT FAIR      82  81  94 CALM      30.05R FOG     HX  95
WALTERBORO     CLEAR     79  73  83 CALM      30.07R
BEAUFORT       CLEAR     84  78  82 CALM      30.06R HX  95


...EASTERN GEORGIA...

CITY           SKY/WX    TMP DP  RH WIND       PRES   REMARKS
AUGUSTA BUSH F CLEAR     79  72  79 CALM      30.06R
AUGUSTA DANIEL CLEAR     88  67  49 NW3       30.08R
THOMSON        PTCLDY    78  76  94 CALM      30.12S
WASHINGTON     FAIR      82  73  74 CALM      30.09R
CLAXTON        FAIR      79  79 100 CALM      30.07R
SYLVANIA       CLEAR     79  76  91 CALM      30.08R
STATESBORO     CLEAR     78  78 100 CALM      30.07R
SAVANNAH       CLEAR     84  74  71 CALM      30.07R


...SOUTHERN NORTH CAROLINA...

CITY           SKY/WX    TMP DP  RH WIND       PRES   REMARKS
CHARLOTTE      MOCLDY    82  67  60 CALM      30.09S
MONROE         CLEAR     80  69  69 CALM      30.08R
WADESBORO      PTCLDY    78  74  87 CALM      30.07R FOG
ROCKINGHAM     PTCLDY    80  69  67 CALM      30.07R
RUTHERFORDTON  PTCLDY    75  71  87 CALM      30.12S
ASHEVILLE      CLEAR     74  70  87 CALM      30.19S

$$



USA.gov is the U.S. government's official web portal to all federal, state and local government web resources and services.